Location: Ferma
(41.9500°N, 44.5167°E)
Time: 18:25:31
(UTC+00:00)

CZ-2C R/B - Pass Details

Date: 04 June 2022
Orbit: 381 x 549 km, 35.0° (Epoch: 28 June)

Event Time Altitude Azimuth Distance (km) Brightness Sun altitude
Exits shadow 23:53:14 23° 179° (S) 878 1.9 -14.2°
Maximum altitude 23:53:18 23° 177° (S) 878 2.0 -14.2°
Drops below altitude 10° 23:55:56 10° 122° (ESE) 1,429 3.6 -13.8°
Sets 23:58:19 0° 107° (ESE) 2,311 4.9 -13.5°
